• în România
  • Lista ţărilor
  • Pe 7 zile
  • Temperatura apei
  • Hartă satelitară
  • Meteo pe hartă
  • Widget-uri
  • user-avatar
    Intrare

    Meteo pe oră la Craiova

    Astăzi, 18 Iulie, Miercuri

    Timp Temperatura Precipitaţii Vânt Presiune Umiditate
    00:00 +20°C° 0 mm 4 m/s 746 mmHg 70%
    01:00 +20°C° 0 mm 4 m/s 746 mmHg 71%
    02:00 +20°C° 0 mm 5 m/s 745 mmHg 71%
    03:00 +20°C° 0 mm 5 m/s 745 mmHg 73%
    04:00 +20°C° 0 mm 5 m/s 745 mmHg 74%
    05:00 +19°C° 0 mm 5 m/s 745 mmHg 76%
    06:00 +21°C° 0 mm 6 m/s 745 mmHg 72%
    07:00 +22°C° 0 mm 7 m/s 745 mmHg 69%
    08:00 +23°C° 0 mm 8 m/s 745 mmHg 65%
    09:00 +24°C° 0 mm 8 m/s 745 mmHg 62%
    10:00 +24°C° 0 mm 8 m/s 745 mmHg 60%
    11:00 +26°C° 0 mm 8 m/s 745 mmHg 57%
    12:00 +27°C° 0 mm 8 m/s 745 mmHg 55%
    13:00 +28°C° 0 mm 8 m/s 745 mmHg 53%
    14:00 +28°C° 0 mm 9 m/s 745 mmHg 52%
    15:00 +28°C° 0 mm 9 m/s 745 mmHg 52%
    16:00 +28°C° 0 mm 8 m/s 744 mmHg 53%
    17:00 +28°C° 0 mm 8 m/s 744 mmHg 53%
    18:00 +27°C° 0 mm 8 m/s 744 mmHg 57%
    19:00 +26°C° 0 mm 8 m/s 744 mmHg 62%
    20:00 +23°C° 0 mm 7 m/s 744 mmHg 66%
    21:00 +23°C° 0 mm 7 m/s 745 mmHg 66%
    22:00 +22°C° 0 mm 7 m/s 745 mmHg 66%
    23:00 +22°C° 0 mm 7 m/s 745 mmHg 65%

    Mâine, 19 Iulie, Joi

    Timp Temperatura Precipitaţii Vânt Presiune Umiditate
    00:00 +21°C° 0 mm 7 m/s 745 mmHg 68%
    01:00 +21°C° 0 mm 6 m/s 745 mmHg 70%
    02:00 +20°C° 0 mm 6 m/s 745 mmHg 72%
    03:00 +20°C° 0 mm 6 m/s 745 mmHg 74%
    04:00 +20°C° 0 mm 5 m/s 745 mmHg 76%
    05:00 +19°C° 0 mm 5 m/s 745 mmHg 78%
    06:00 +21°C° 0 mm 5 m/s 745 mmHg 75%
    07:00 +22°C° 0 mm 5 m/s 745 mmHg 71%
    08:00 +23°C° 0 mm 5 m/s 745 mmHg 68%
    09:00 +26°C° 0 mm 5 m/s 746 mmHg 63%
    10:00 +27°C° 0 mm 5 m/s 746 mmHg 58%
    11:00 +29°C° 0 mm 5 m/s 746 mmHg 53%
    12:00 +29°C° 0 mm 5 m/s 746 mmHg 53%
    13:00 +30°C° 0 mm 6 m/s 746 mmHg 53%
    14:00 +30°C° 0 mm 6 m/s 746 mmHg 53%
    15:00 +30°C° 0 mm 6 m/s 746 mmHg 53%
    16:00 +30°C° 0 mm 7 m/s 746 mmHg 54%
    17:00 +30°C° 0 mm 7 m/s 746 mmHg 55%
    18:00 +28°C° 0 mm 6 m/s 746 mmHg 60%
    19:00 +27°C° 0 mm 6 m/s 746 mmHg 65%
    20:00 +24°C° 0 mm 6 m/s 746 mmHg 70%
    21:00 +25°C° 0,1 mm 5 m/s 747 mmHg 73%
    22:00 +23°C° 0,1 mm 5 m/s 747 mmHg 76%
    23:00 +22°C° 0,1 mm 5 m/s 747 mmHg 79%

    Poimâine, 20 Iulie, Vineri

    Timp Temperatura Precipitaţii Vânt Presiune Umiditate
    00:00 +22°C° 0 mm 4 m/s 747 mmHg 80%
    01:00 +21°C° 0 mm 4 m/s 747 mmHg 81%
    02:00 +21°C° 0 mm 3 m/s 747 mmHg 82%
    03:00 +21°C° 0 mm 3 m/s 747 mmHg 83%
    04:00 +21°C° 0 mm 3 m/s 747 mmHg 83%
    05:00 +20°C° 0 mm 3 m/s 747 mmHg 84%
    06:00 +22°C° 0 mm 4 m/s 747 mmHg 79%
    07:00 +23°C° 0 mm 4 m/s 748 mmHg 75%
    08:00 +25°C° 0 mm 5 m/s 748 mmHg 70%
    09:00 +27°C° 0 mm 5 m/s 748 mmHg 64%
    10:00 +28°C° 0 mm 5 m/s 748 mmHg 58%
    11:00 +30°C° 0 mm 4 m/s 748 mmHg 52%
    12:00 +32°C° 0 mm 5 m/s 748 mmHg 50%
    13:00 +33°C° 0 mm 5 m/s 748 mmHg 48%
    14:00 +33°C° 0 mm 5 m/s 748 mmHg 46%
    15:00 +33°C° 0 mm 5 m/s 748 mmHg 47%
    16:00 +33°C° 0 mm 6 m/s 748 mmHg 49%
    17:00 +32°C° 0 mm 6 m/s 747 mmHg 51%
    18:00 +30°C° 0 mm 5 m/s 748 mmHg 55%
    19:00 +28°C° 0 mm 5 m/s 748 mmHg 60%
    20:00 +27°C° 0 mm 4 m/s 748 mmHg 65%
    21:00 +26°C° 0,4 mm 4 m/s 748 mmHg 67%
    22:00 +25°C° 0,4 mm 4 m/s 748 mmHg 70%
    23:00 +23°C° 0,4 mm 4 m/s 749 mmHg 72%

    21 Iulie, Sâmbătă

    Timp Temperatura Precipitaţii Vânt Presiune Umiditate
    00:00 +22°C° 0,4 mm 3 m/s 749 mmHg 74%
    01:00 +22°C° 0,4 mm 3 m/s 749 mmHg 75%
    02:00 +21°C° 0,4 mm 3 m/s 749 mmHg 77%
    03:00 +21°C° 0 mm 3 m/s 749 mmHg 78%
    04:00 +20°C° 0 mm 2 m/s 749 mmHg 79%
    05:00 +20°C° 0 mm 2 m/s 749 mmHg 79%
    06:00 +23°C° 0 mm 2 m/s 749 mmHg 75%
    07:00 +24°C° 0 mm 2 m/s 749 mmHg 70%
    08:00 +25°C° 0 mm 2 m/s 749 mmHg 66%
    09:00 +27°C° 0 mm 2 m/s 749 mmHg 61%
    10:00 +29°C° 0 mm 2 m/s 749 mmHg 57%
    11:00 +30°C° 0 mm 2 m/s 749 mmHg 52%
    12:00 +31°C° 0 mm 2 m/s 749 mmHg 49%
    13:00 +32°C° 0 mm 2 m/s 748 mmHg 46%
    14:00 +34°C° 0 mm 2 m/s 748 mmHg 43%
    15:00 +34°C° 0 mm 2 m/s 748 mmHg 42%
    16:00 +34°C° 0 mm 2 m/s 748 mmHg 41%
    17:00 +34°C° 0 mm 2 m/s 748 mmHg 40%
    18:00 +31°C° 0 mm 2 m/s 748 mmHg 45%
    19:00 +30°C° 0 mm 2 m/s 748 mmHg 50%
    20:00 +28°C° 0 mm 1 m/s 748 mmHg 55%
    21:00 +27°C° 0,1 mm 1 m/s 748 mmHg 59%
    22:00 +26°C° 0,1 mm 1 m/s 748 mmHg 63%
    23:00 +25°C° 0,1 mm 1 m/s 748 mmHg 66%

    22 Iulie, Duminică

    Timp Temperatura Precipitaţii Vânt Presiune Umiditate
    00:00 +24°C° 0,1 mm 1 m/s 748 mmHg 69%
    01:00 +23°C° 0,1 mm 1 m/s 747 mmHg 72%
    02:00 +23°C° 0,1 mm 1 m/s 747 mmHg 74%
    03:00 +22°C° 0 mm 1 m/s 747 mmHg 76%
    04:00 +22°C° 0 mm 1 m/s 747 mmHg 78%
    05:00 +22°C° 0 mm 1 m/s 747 mmHg 79%
    06:00 +23°C° 0 mm 1 m/s 747 mmHg 75%
    07:00 +24°C° 0 mm 1 m/s 747 mmHg 71%
    08:00 +26°C° 0 mm 1 m/s 747 mmHg 66%
    09:00 +28°C° 0 mm 1 m/s 747 mmHg 60%
    10:00 +29°C° 0 mm 2 m/s 746 mmHg 54%
    11:00 +31°C° 0 mm 2 m/s 746 mmHg 48%
    12:00 +32°C° 0 mm 2 m/s 745 mmHg 44%
    13:00 +34°C° 0 mm 2 m/s 745 mmHg 40%
    14:00 +35°C° 0 mm 2 m/s 744 mmHg 36%
    15:00 +35°C° 0 mm 2 m/s 744 mmHg 36%
    16:00 +35°C° 0 mm 2 m/s 744 mmHg 36%
    17:00 +35°C° 0 mm 2 m/s 744 mmHg 36%
    18:00 +32°C° 1 mm 4 m/s 744 mmHg 47%
    19:00 +28°C° 1 mm 5 m/s 744 mmHg 59%
    20:00 +23°C° 1 mm 6 m/s 745 mmHg 70%
    21:00 +22°C° 1,1 mm 5 m/s 745 mmHg 75%
    22:00 +21°C° 1,1 mm 3 m/s 745 mmHg 80%
    23:00 +21°C° 1,1 mm 2 m/s 745 mmHg 85%

    23 Iulie, Luni

    Timp Temperatura Precipitaţii Vânt Presiune Umiditate
    00:00 +20°C° 0,2 mm 2 m/s 745 mmHg 86%
    01:00 +21°C° 0,2 mm 1 m/s 745 mmHg 87%
    02:00 +21°C° 0,2 mm 1 m/s 745 mmHg 88%
    03:00 +21°C° 0,2 mm 1 m/s 745 mmHg 89%
    04:00 +19°C° 0,2 mm 2 m/s 745 mmHg 90%
    05:00 +19°C° 0,2 mm 2 m/s 745 mmHg 91%
    06:00 +20°C° 0 mm 2 m/s 745 mmHg 86%
    07:00 +21°C° 0 mm 2 m/s 745 mmHg 82%
    08:00 +23°C° 0 mm 2 m/s 745 mmHg 78%
    09:00 +25°C° 0,1 mm 2 m/s 745 mmHg 72%
    10:00 +26°C° 0,1 mm 2 m/s 745 mmHg 66%
    11:00 +28°C° 0,1 mm 2 m/s 745 mmHg 60%
    12:00 +29°C° 0,5 mm 2 m/s 745 mmHg 57%
    13:00 +29°C° 0,5 mm 2 m/s 745 mmHg 54%
    14:00 +30°C° 0,5 mm 2 m/s 744 mmHg 51%
    15:00 +30°C° 0,3 mm 3 m/s 744 mmHg 53%
    16:00 +29°C° 0,3 mm 3 m/s 744 mmHg 56%
    17:00 +29°C° 0,3 mm 4 m/s 744 mmHg 58%
    18:00 +27°C° 0,6 mm 3 m/s 745 mmHg 65%
    19:00 +26°C° 0,6 mm 3 m/s 745 mmHg 71%
    20:00 +24°C° 0,6 mm 3 m/s 745 mmHg 78%
    21:00 +24°C° 0,4 mm 3 m/s 745 mmHg 80%
    22:00 +22°C° 0,4 mm 3 m/s 745 mmHg 83%
    23:00 +23°C° 0,4 mm 2 m/s 746 mmHg 85%
    Arată mai mult